2024/02/15 00:00:00,48.1, 7.2
2024/02/15 00:10:00,48.1, 7.5
2024/02/15 00:20:00,48.0, 6.9
2024/02/15 00:30:00,48.0, 7.3
2024/02/15 00:40:00,48.0, 7.1
2024/02/15 00:50:00,47.9, 7.5
2024/02/15 01:00:00,47.8, 7.7
2024/02/15 01:10:00,47.7, 7.2
2024/02/15 01:20:00,47.7, 7.4
2024/02/15 01:30:00,47.6, 7.4
2024/02/15 01:40:00,47.6, 7.6
2024/02/15 01:50:00,47.4, 7.4
2024/02/15 02:00:00,47.3, 7.2
2024/02/15 02:10:00,47.3, 7.2
2024/02/15 02:20:00,47.2, 7.2
2024/02/15 02:30:00,47.2, 7.2
2024/02/15 02:40:00,47.2, 6.8
2024/02/15 02:50:00,47.1, 7.0
2024/02/15 03:00:00,47.0, 7.4
2024/02/15 03:10:00,46.9, 7.2
2024/02/15 03:20:00,46.9, 7.3
2024/02/15 03:30:00,46.8, 7.5
2024/02/15 03:40:00,46.7, 7.5
2024/02/15 03:50:00,46.6, 6.9
2024/02/15 04:00:00,46.6, 6.3
2024/02/15 04:10:00,46.5, 6.7
2024/02/15 04:20:00,46.4, 7.3
2024/02/15 04:30:00,46.3, 7.6
2024/02/15 04:40:00,46.2, 7.7
2024/02/15 04:50:00,46.1, 7.6
2024/02/15 05:00:00,45.9, 7.8
2024/02/15 05:10:00,45.7, 7.9
2024/02/15 05:20:00,45.6, 8.1
2024/02/15 05:30:00,45.6, 8.1
2024/02/15 05:40:00,45.6, 8.0
2024/02/15 05:50:00,45.5, 7.8
2024/02/15 06:00:00,45.4, 7.6
2024/02/15 06:10:00,45.3, 7.2
2024/02/15 06:20:00,45.2, 7.1
2024/02/15 06:30:00,45.0, 7.8
2024/02/15 06:40:00,45.1, 7.6
2024/02/15 06:50:00,45.0, 6.7
2024/02/15 07:00:00,45.0, 6.9
2024/02/15 07:10:00,44.9, 6.5
2024/02/15 07:20:00,44.8, 6.8
2024/02/15 07:30:00,44.6, 7.2
2024/02/15 07:40:00,44.4, 7.6
2024/02/15 07:50:00,44.4, 7.8
2024/02/15 08:00:00,44.3, 7.2
2024/02/15 08:10:00,44.2, 7.8
2024/02/15 08:20:00,44.2, 8.0
2024/02/15 08:30:00,44.2, 9.0
2024/02/15 08:40:00,44.0, 9.0
2024/02/15 08:50:00,44.0, 9.3
2024/02/15 09:00:00,43.9, 9.8
2024/02/15 09:10:00,43.9,12.5
2024/02/15 09:20:00,44.0,11.2
2024/02/15 09:30:00,44.5,13.0
2024/02/15 09:40:00,44.4,12.2
2024/02/15 09:50:00,44.1,11.7
2024/02/15 10:00:00,44.2,11.6
2024/02/15 10:10:00,44.1,12.2
2024/02/15 10:20:00,44.2,12.8
2024/02/15 10:30:00,44.2,12.9
2024/02/15 10:40:00,44.2,13.6
2024/02/15 10:50:00,43.7,13.4
2024/02/15 11:00:00,43.3,13.2
2024/02/15 11:10:00,43.6,14.0
2024/02/15 11:20:00,43.1,11.8
2024/02/15 11:30:00,43.0,11.4
2024/02/15 11:40:00,42.8,10.6
2024/02/15 11:50:00,42.6,10.6
2024/02/15 12:00:00,42.7,11.7
2024/02/15 12:10:00,42.5,11.4
2024/02/15 12:20:00,42.3,10.6
2024/02/15 12:30:00,42.2,10.7
2024/02/15 12:40:00,42.0, 9.4
2024/02/15 12:50:00,41.8, 9.2
2024/02/15 13:00:00,41.7, 8.8
2024/02/15 13:10:00,41.4, 8.6
2024/02/15 13:20:00,41.3, 8.6
2024/02/15 13:30:00,41.2, 9.1
2024/02/15 13:40:00,41.1, 9.1
2024/02/15 13:50:00,41.0, 8.9
2024/02/15 14:00:00,40.9, 8.7
2024/02/15 14:10:00,40.8, 8.2
2024/02/15 14:20:00,40.7, 8.6
2024/02/15 14:30:00,40.8, 9.0
2024/02/15 14:40:00,40.9, 9.9
2024/02/15 14:50:00,40.8,10.0
2024/02/15 15:00:00,40.6, 9.8
2024/02/15 15:10:00,40.7, 9.8
2024/02/15 15:20:00,40.4, 8.9
2024/02/15 15:30:00,40.1, 8.8
2024/02/15 15:40:00,40.1, 9.0
2024/02/15 15:50:00,40.0, 9.3
2024/02/15 16:00:00,40.0, 9.3
2024/02/15 16:10:00,40.0, 9.7
2024/02/15 16:20:00,40.0,10.3
2024/02/15 16:30:00,39.8,10.6
2024/02/15 16:40:00,39.6, 9.8
2024/02/15 16:50:00,39.3, 9.4
2024/02/15 17:00:00,39.2, 9.2
2024/02/15 17:10:00,39.0, 8.3
2024/02/15 17:20:00,39.0, 8.2
2024/02/15 17:30:00,38.8, 8.9
2024/02/15 17:40:00,38.7, 9.0
2024/02/15 17:50:00,38.5, 9.2
2024/02/15 18:00:00,38.4, 9.2
2024/02/15 18:10:00,38.4, 8.3
2024/02/15 18:20:00,38.4, 8.5
2024/02/15 18:30:00,37.6, 8.2
2024/02/15 18:40:00,36.6, 7.5
2024/02/15 18:50:00,36.9, 7.2
2024/02/15 19:00:00,36.9, 7.9
2024/02/15 19:10:00,37.0, 8.5
2024/02/15 19:20:00,37.0, 8.1
2024/02/15 19:30:00,36.8, 7.8
2024/02/15 19:40:00,36.8, 7.5
2024/02/15 19:50:00,36.9, 7.6
2024/02/15 20:00:00,36.9, 7.2
2024/02/15 20:10:00,36.8, 7.3
2024/02/15 20:20:00,36.8, 6.8
2024/02/15 20:30:00,36.7, 7.8
2024/02/15 20:40:00,36.7, 7.6
2024/02/15 20:50:00,36.6, 8.3
2024/02/15 21:00:00,36.5, 7.9
2024/02/15 21:10:00,36.5, 7.2
2024/02/15 21:20:00,36.4, 6.8
2024/02/15 21:30:00,36.4, 6.5
2024/02/15 21:40:00,36.4, 6.0
2024/02/15 21:50:00,35.9, 5.5
2024/02/15 22:00:00,35.6, 4.8
2024/02/15 22:10:00,35.5, 5.0
2024/02/15 22:20:00,35.4, 4.5
2024/02/15 22:30:00,35.3, 4.4
2024/02/15 22:40:00,35.5, 3.7
2024/02/15 22:50:00,35.5, 3.3
2024/02/15 23:00:00,35.4, 2.9
2024/02/15 23:10:00,35.4, 3.0
2024/02/15 23:20:00,35.4, 2.6
2024/02/15 23:30:00,35.4, 2.6
2024/02/15 23:40:00,35.3, 2.5
2024/02/15 23:50:00,35.3, 1.9
